Regional Weather Roundup
Issued by NWS

Home | Current Version | Previous Version | Text Only | Print | Product List | Glossary On
Versions: 1 2 3 4 5 6 7 8 9 10 11 12 13 14 15 16 17 18 19 20 21 22 23 24 25 26 27 28 29 30 31 32 33 34 35 36 37 38 39 40 41 42 43 44 45 46 47 48 49 50
000
ASUS45 KCYS 220210
RWRWY

WYOMING REGIONAL WEATHER ROUNDUP
NATIONAL WEATHER SERVICE CHEYENNE WY
700 PM MST SUN DEC 21 2014

NOTE:  "FAIR" INDICATES FEW OR NO CLOUDS BELOW 12,000 FEET
WITH NO SIGNIFICANT WEATHER AND/OR OBSTRUCTIONS TO VISIBILITY.

WYZ001-220300-
YELLOWSTONE NATIONAL PARK

CITY           SKY/WX    TMP DP  RH WIND       PRES   REMARKS
LK YELLOWSTONE   N/A     26  19  74 VRB6      29.76R WCI  19
W YELLOWSTONE  NOT AVBL

$$
WYZ002>013-054>058-071-098>099-220300-
NORTHERN WYOMING

CITY           SKY/WX    TMP DP  RH WIND       PRES   REMARKS
JACKSON        CLOUDY    37  21  52 W12       29.80R WCI  30
CODY           CLOUDY    36  30  80 W6        29.65R WCI  31
GREYBULL       MOCLDY    33  31  92 SW6       29.64R WCI  28
WORLAND        CLOUDY    34  31  88 SW8       29.65R WCI  27
SHERIDAN       CLOUDY    41  24  51 NW20G38   29.56R
BUFFALO        FAIR      37  25  61 N21G30    29.56R WCI  26
GILLETTE         N/A     34  30  85 MISG      29.53R
HULETT           N/A    N/A N/A N/A MISG        N/A
NEWCASTLE      FAIR      36  30  80 NW12      29.50F WCI  27

$$
WYZ014>020-022>026-101>103-220300-
CENTRAL WYOMING

CITY           SKY/WX    TMP DP  RH WIND       PRES   REMARKS
BIG PINEY      LGT SNOW  33  29  85 N29G38    29.78R FOG     WCI  19
PINEDALE       CLOUDY    30  27  86 NW15      29.77R WCI  19
DUBOIS         NOT AVBL
LANDER         FAIR      31  24  75 W8        29.67R WCI  23
RIVERTON       FAIR      35  21  56 NW24G31   29.66R WCI  23
CASPER         FAIR      32  29  88 VRB3      29.63R
DOUGLAS        CLOUDY    34  31  88 NW15      29.59R WCI  24

$$
WYZ021-027>030-104>119-220300-
SOUTHERN WYOMING

CITY           SKY/WX    TMP DP  RH WIND       PRES   REMARKS
EVANSTON       LGT RAIN  36  34  92 W10       29.91R WCI  28
KEMMERER       MIX PCPN  34  32  93 W31G44    29.84R WCI  20
FORT BRIDGER   MIX PCPN  35  35 100 W23G29    29.88R WCI  23
ROCK SPRINGS   FAIR      36  29  75 W38G59    29.73R WCI  22
DIXON          CLOUDY    38  32  77 W24G31    29.75S WCI  27
RAWLINS        MOCLDY    35  31  85 W23G35    29.67R WCI  23
SARATOGA       FAIR      34  32  93 W29G36    29.66R WCI  20
LARAMIE        MOCLDY    34  29  82 NW25G35   29.59R WCI  21
CHEYENNE       FAIR      38  31  76 NW18G30   29.56R WCI  28
TORRINGTON     LGT RAIN N/A N/A N/A NW18G26   29.53R
PINE BLUFFS    CLOUDY    36  34  93 N5        29.56F WCI  32

$$


USA.gov is the U.S. government's official web portal to all federal, state and local government web resources and services.